Location: Lac Lasalle
(46.0398°N, 74.1576°W)
Time: 21:58:41
(UTC-04:00)

Tiangong 2 - Visible Passes

Search period start: 18 March 2019 00:00
Search period end: 28 March 2019 00:00
Orbit: 379 x 390 km, 42.8° (Epoch: 18 March)

Date Brightness Start Highest point End Pass type
(mag) Time Alt. Az. Time Alt. Az. Time Alt. Az.
18 Mar 4.1 04:29:28 14° ESE 04:29:28 14° ESE 04:30:01 10° E visible
18 Mar 1.8 06:01:41 20° WSW 06:03:28 39° S 06:06:29 10° ESE visible
19 Mar 2.3 05:04:58 34° SE 05:04:58 34° SE 05:07:10 10° ESE visible
20 Mar 2.1 05:40:31 28° SW 05:41:11 31° SSW 05:44:02 10° SE visible
21 Mar 3.6 04:43:55 17° SE 04:43:55 17° SE 04:44:48 10° ESE visible
21 Mar 3.1 06:16:09 10° WSW 06:18:05 16° SSW 06:20:07 10° SSE visible
22 Mar 2.9 05:19:39 20° S 05:19:39 20° S 05:21:22 10° SSE visible
23 Mar 3.5 05:55:32 10° SSW 05:55:35 10° SSW 05:55:51 10° SSW visible
